Stündliche Wetter Barnasie

Heute, 25 Oktober, Sonntag

Zeit Temperatur Niederschläge Wind Luftdruck Luftfeuchtigkeit
00:00 +9°C° 0 mm 0 m/S 706 mmHg 95%
01:00 +8°C° 0 mm 0 m/S 706 mmHg 95%
02:00 +8°C° 0 mm 0 m/S 706 mmHg 95%
03:00 +8°C° 0 mm 0 m/S 706 mmHg 95%
04:00 +7°C° 0 mm 0 m/S 705 mmHg 95%
05:00 +7°C° 0 mm 0 m/S 705 mmHg 95%
06:00 +7°C° 0 mm 0 m/S 706 mmHg 95%
07:00 +7°C° 0 mm 0 m/S 706 mmHg 95%
08:00 +10°C° 0 mm 1 m/S 706 mmHg 89%
09:00 +12°C° 0 mm 1 m/S 706 mmHg 83%
10:00 +13°C° 0 mm 1 m/S 706 mmHg 77%
11:00 +14°C° 0 mm 1 m/S 705 mmHg 76%
12:00 +14°C° 0 mm 1 m/S 705 mmHg 74%
13:00 +14°C° 0 mm 1 m/S 705 mmHg 73%
14:00 +14°C° 0 mm 1 m/S 705 mmHg 78%
15:00 +13°C° 0 mm 1 m/S 704 mmHg 83%
16:00 +12°C° 0 mm 1 m/S 704 mmHg 89%
17:00 +11°C° 0 mm 1 m/S 704 mmHg 90%
18:00 +11°C° 0 mm 1 m/S 704 mmHg 91%
19:00 +10°C° 0 mm 1 m/S 704 mmHg 93%
20:00 +10°C° 0 mm 1 m/S 704 mmHg 93%
21:00 +10°C° 0 mm 1 m/S 703 mmHg 94%
22:00 +9°C° 0 mm 1 m/S 703 mmHg 95%
23:00 +9°C° 0 mm 1 m/S 703 mmHg 95%

Morgen, 26 Oktober, Montag

Zeit Temperatur Niederschläge Wind Luftdruck Luftfeuchtigkeit
00:00 +9°C° 0 mm 1 m/S 703 mmHg 94%
01:00 +9°C° 0 mm 1 m/S 703 mmHg 94%
02:00 +9°C° 0 mm 1 m/S 703 mmHg 94%
03:00 +8°C° 0 mm 2 m/S 702 mmHg 95%
04:00 +8°C° 0 mm 2 m/S 702 mmHg 95%
05:00 +8°C° 0 mm 2 m/S 702 mmHg 94%
06:00 +8°C° 0 mm 2 m/S 702 mmHg 94%
07:00 +8°C° 0 mm 2 m/S 702 mmHg 93%
08:00 +10°C° 0 mm 2 m/S 702 mmHg 87%
09:00 +11°C° 0 mm 3 m/S 702 mmHg 81%
10:00 +13°C° 0 mm 3 m/S 702 mmHg 75%
11:00 +13°C° 0 mm 3 m/S 702 mmHg 72%
12:00 +14°C° 0 mm 3 m/S 702 mmHg 69%
13:00 +14°C° 0 mm 3 m/S 702 mmHg 66%
14:00 +13°C° 0 mm 3 m/S 702 mmHg 71%
15:00 +12°C° 0 mm 3 m/S 701 mmHg 76%
16:00 +13°C° 0 mm 2 m/S 701 mmHg 81%
17:00 +12°C° 0 mm 2 m/S 701 mmHg 84%
18:00 +12°C° 0 mm 2 m/S 702 mmHg 86%
19:00 +10°C° 0 mm 2 m/S 702 mmHg 89%
20:00 +10°C° 0 mm 2 m/S 702 mmHg 90%
21:00 +10°C° 0 mm 2 m/S 702 mmHg 91%
22:00 +10°C° 0 mm 2 m/S 702 mmHg 92%
23:00 +10°C° 0 mm 2 m/S 702 mmHg 92%

übermorgen, 27 Oktober, Dienstag

Zeit Temperatur Niederschläge Wind Luftdruck Luftfeuchtigkeit
00:00 +9°C° 0 mm 2 m/S 702 mmHg 93%
01:00 +9°C° 0 mm 2 m/S 702 mmHg 93%
02:00 +9°C° 0 mm 2 m/S 702 mmHg 93%
03:00 +9°C° 0 mm 2 m/S 702 mmHg 93%
04:00 +9°C° 0 mm 2 m/S 702 mmHg 93%
05:00 +8°C° 0 mm 2 m/S 702 mmHg 93%
06:00 +8°C° 0 mm 2 m/S 702 mmHg 93%
07:00 +8°C° 0 mm 2 m/S 702 mmHg 92%
08:00 +10°C° 0 mm 2 m/S 703 mmHg 85%
09:00 +12°C° 0 mm 3 m/S 703 mmHg 78%
10:00 +14°C° 0 mm 3 m/S 704 mmHg 71%
11:00 +16°C° 0 mm 3 m/S 703 mmHg 67%
12:00 +16°C° 0 mm 3 m/S 703 mmHg 64%
13:00 +17°C° 0 mm 3 m/S 703 mmHg 61%
14:00 +16°C° 0 mm 2 m/S 703 mmHg 67%
15:00 +14°C° 0 mm 2 m/S 703 mmHg 73%
16:00 +13°C° 0 mm 2 m/S 703 mmHg 79%
17:00 +12°C° 0 mm 2 m/S 703 mmHg 81%
18:00 +10°C° 0 mm 2 m/S 703 mmHg 84%
19:00 +10°C° 0 mm 2 m/S 703 mmHg 87%
20:00 +9°C° 0 mm 2 m/S 703 mmHg 87%
21:00 +10°C° 0 mm 1 m/S 704 mmHg 87%
22:00 +10°C° 0 mm 1 m/S 704 mmHg 87%
23:00 +10°C° 0 mm 1 m/S 704 mmHg 87%

28 Oktober, Mittwoch

Zeit Temperatur Niederschläge Wind Luftdruck Luftfeuchtigkeit
00:00 +9°C° 0 mm 1 m/S 704 mmHg 87%
01:00 +9°C° 0 mm 1 m/S 704 mmHg 87%
02:00 +9°C° 0 mm 1 m/S 704 mmHg 87%
03:00 +9°C° 0 mm 1 m/S 704 mmHg 87%
04:00 +8°C° 0 mm 0 m/S 704 mmHg 88%
05:00 +8°C° 0 mm 0 m/S 705 mmHg 88%
06:00 +8°C° 0 mm 0 m/S 705 mmHg 88%
07:00 +8°C° 0 mm 0 m/S 705 mmHg 88%
08:00 +9°C° 0 mm 0 m/S 705 mmHg 81%
09:00 +11°C° 0 mm 0 m/S 706 mmHg 75%
10:00 +13°C° 0 mm 0 m/S 706 mmHg 69%
11:00 +14°C° 0 mm 0 m/S 706 mmHg 67%
12:00 +15°C° 0 mm 0 m/S 706 mmHg 64%
13:00 +16°C° 0 mm 1 m/S 706 mmHg 62%
14:00 +14°C° 0 mm 0 m/S 706 mmHg 69%
15:00 +13°C° 0 mm 0 m/S 705 mmHg 76%
16:00 +11°C° 0 mm 0 m/S 705 mmHg 83%
17:00 +11°C° 0 mm 0 m/S 705 mmHg 85%
18:00 +11°C° 0 mm 1 m/S 705 mmHg 88%
19:00 +10°C° 0 mm 1 m/S 705 mmHg 91%
20:00 +10°C° 0 mm 1 m/S 705 mmHg 91%
21:00 +10°C° 0 mm 1 m/S 706 mmHg 91%
22:00 +9°C° 0 mm 1 m/S 706 mmHg 92%
23:00 +9°C° 0 mm 1 m/S 706 mmHg 92%

29 Oktober, Donnerstag

Zeit Temperatur Niederschläge Wind Luftdruck Luftfeuchtigkeit
00:00 +9°C° 0 mm 1 m/S 706 mmHg 92%
01:00 +9°C° 0 mm 1 m/S 706 mmHg 92%
02:00 +8°C° 0 mm 1 m/S 706 mmHg 92%
03:00 +8°C° 0 mm 1 m/S 706 mmHg 92%
04:00 +8°C° 0 mm 1 m/S 706 mmHg 93%
05:00 +8°C° 0 mm 1 m/S 706 mmHg 92%
06:00 +8°C° 0 mm 1 m/S 706 mmHg 91%
07:00 +8°C° 0 mm 1 m/S 707 mmHg 91%
08:00 +10°C° 0 mm 1 m/S 707 mmHg 83%
09:00 +12°C° 0 mm 1 m/S 707 mmHg 76%
10:00 +13°C° 0 mm 0 m/S 708 mmHg 69%
11:00 +14°C° 0 mm 1 m/S 708 mmHg 65%
12:00 +15°C° 0 mm 1 m/S 708 mmHg 60%
13:00 +15°C° 0 mm 1 m/S 708 mmHg 56%
14:00 +14°C° 0 mm 1 m/S 708 mmHg 63%
15:00 +12°C° 0 mm 0 m/S 708 mmHg 70%
16:00 +10°C° 0 mm 0 m/S 708 mmHg 77%
17:00 +10°C° 0 mm 0 m/S 708 mmHg 80%
18:00 +10°C° 0 mm 1 m/S 709 mmHg 83%
19:00 +9°C° 0 mm 1 m/S 709 mmHg 86%
20:00 +9°C° 0 mm 1 m/S 709 mmHg 87%
21:00 +9°C° 0 mm 1 m/S 709 mmHg 87%
22:00 +9°C° 0 mm 1 m/S 710 mmHg 87%
23:00 +8°C° 0 mm 1 m/S 710 mmHg 88%

30 Oktober, Freitag

Zeit Temperatur Niederschläge Wind Luftdruck Luftfeuchtigkeit
00:00 +8°C° 0 mm 1 m/S 710 mmHg 89%
01:00 +8°C° 0 mm 1 m/S 710 mmHg 89%
02:00 +7°C° 0 mm 1 m/S 710 mmHg 88%
03:00 +7°C° 0 mm 1 m/S 710 mmHg 88%
04:00 +7°C° 0 mm 1 m/S 710 mmHg 87%
05:00 +7°C° 0 mm 1 m/S 710 mmHg 86%
06:00 +6°C° 0 mm 2 m/S 710 mmHg 85%
07:00 +6°C° 0 mm 2 m/S 711 mmHg 83%
08:00 +8°C° 0 mm 2 m/S 711 mmHg 77%
09:00 +10°C° 0 mm 2 m/S 711 mmHg 71%
10:00 +13°C° 0 mm 2 m/S 712 mmHg 64%
11:00 +13°C° 0 mm 2 m/S 712 mmHg 64%
12:00 +14°C° 0 mm 2 m/S 712 mmHg 64%
13:00 +14°C° 0 mm 2 m/S 712 mmHg 64%
14:00 +13°C° 0 mm 2 m/S 712 mmHg 69%
15:00 +12°C° 0 mm 1 m/S 711 mmHg 74%
16:00 +12°C° 0 mm 1 m/S 711 mmHg 78%
17:00 +11°C° 0 mm 1 m/S 711 mmHg 80%
18:00 +10°C° 0 mm 1 m/S 711 mmHg 82%
19:00 +9°C° 0 mm 2 m/S 711 mmHg 84%
20:00 +9°C° 0 mm 2 m/S 712 mmHg 83%
21:00 +9°C° 0 mm 2 m/S 712 mmHg 83%
22:00 +8°C° 0 mm 2 m/S 712 mmHg 83%
23:00 +8°C° 0 mm 2 m/S 711 mmHg 83%
Mehr zeigen